Weather History for Henderson, NV

Change the Weather History Date:

Wednesday, December 19, 2012

  Actual Average (KLAS) Record (KLAS)
Temperature  
Mean Temperature 38 °F 47 °F  
Max Temperature 45 °F 56 °F 68 °F (1942)
Min Temperature 29 °F 38 °F 22 °F (1945)
Degree Days  
Heating Degree Days 28 18  
Month to date heating degree days 323  
Since 1 July heating degree days 632  
Cooling Degree Days 0 0  
Month to date cooling degree days 0  
Year to date cooling degree days 3568  
Moisture  
Dew Point 10 °F    
Average Humidity 33    
Maximum Humidity 61    
Minimum Humidity 18    
Precipitation  
Precipitation 0.00 in 0.02 in 0.42 in (1984)
Month to date precipitation 0.27  
Year to date precipitation 3.96  
Snow  
Snow 0.00 in 0.00 in T in (2006)
Month to date snowfall 0.1  
Since 1 July snowfall 0.1  
Snow Depth -    
Sea Level Pressure  
Sea Level Pressure 30.25 in    
Wind  
Wind Speed 15 mph (NNE)    
Max Wind Speed 22 mph    
Max Gust Speed 32 mph    
Visibility 10 miles    
Events      
T = Trace of Precipitation, MM = Missing Value Source: NWS Daily Summary

Daily Weather History Graph

Daily Weather History Graph

Search for Another Location

Airport:

Trip Planner

Search our weather history database for the weather conditions in past years. The results will help you decide how hot, cold, wet, or windy it might be!

Date:

Astronomy

Dec. 19, 2012 Rise Set
Actual Time 6:46 AM PST 4:29 PM PST
Civil Twilight 6:17 AM PST 4:58 PM PST
Nautical Twilight 5:45 AM PST 5:30 PM PST
Astronomical Twilight 5:14 AM PST 6:01 PM PST
Moon 11:10 AM PST (12/19) 11:48 PM PST (12/19)
Length of Visible Light 10h 40m
Length of Day
9h 42m
Waxing Crescent, 46% of the Moon is Illuminated
Dec 19
Waxing Crescent
Dec 19
First Quarter
Dec 28
Full
Jan 4
Last Quarter
Jan 11
New

Hourly Weather History & Observations

Time (PST) Temp. Windchill Dew Point Humidity Pressure Visibility Wind Dir Wind Speed Gust Speed Precip Events Conditions
12:56 AM 41.0 °F 31.9 °F 22.1 °F 47% 29.88 in 10.0 mi NNW 19.6 mph 26.5 mph N/A   Partly Cloudy
1:56 AM 39.9 °F 31.8 °F 19.0 °F 43% 29.91 in 10.0 mi NNW 15.0 mph - N/A   Clear
2:56 AM 39.9 °F 30.8 °F 13.1 °F 33% 29.96 in 10.0 mi NNW 18.4 mph 27.6 mph N/A   Clear
3:56 AM 37.9 °F 28.5 °F 11.1 °F 33% 30.00 in 10.0 mi North 17.3 mph 25.3 mph N/A   Clear
4:56 AM 37.9 °F 27.3 °F 9.1 °F 30% 30.04 in 10.0 mi NNW 21.9 mph 25.3 mph N/A   Clear
5:56 AM 37.9 °F 28.5 °F 8.1 °F 29% 30.12 in 10.0 mi NNW 17.3 mph 32.2 mph N/A   Clear
6:56 AM 36.9 °F 25.9 °F 8.1 °F 30% 30.17 in 10.0 mi NNW 21.9 mph 27.6 mph N/A   Clear
7:56 AM 37.9 °F 27.9 °F 8.1 °F 29% 30.24 in 10.0 mi North 19.6 mph 26.5 mph N/A   Clear
8:56 AM 39.9 °F 31.4 °F 7.2 °F 26% 30.27 in 10.0 mi North 16.1 mph - N/A   Clear
9:56 AM 41.9 °F 34.0 °F 6.1 °F 23% 30.29 in 10.0 mi North 16.1 mph - N/A   Clear
10:56 AM 43.0 °F 36.0 °F 7.2 °F 23% 30.29 in 10.0 mi North 13.8 mph - N/A   Clear
11:56 AM 43.9 °F 36.5 °F 6.1 °F 21% 30.29 in 10.0 mi NNE 16.1 mph 21.9 mph N/A   Clear
12:56 PM 45.0 °F 38.5 °F 5.0 °F 19% 30.30 in 10.0 mi NE 13.8 mph 19.6 mph N/A   Clear
1:56 PM 45.0 °F 38.5 °F 3.0 °F 18% 30.30 in 10.0 mi ENE 13.8 mph - N/A   Clear
2:56 PM 43.9 °F 37.2 °F 5.0 °F 20% 30.32 in 10.0 mi NE 13.8 mph - N/A   Clear
3:56 PM 42.8 °F 37.0 °F 5.0 °F 21% 30.30 in 10.0 mi ENE 10.4 mph - N/A   Clear
4:56 PM 39.9 °F 34.5 °F 8.1 °F 27% 30.37 in 10.0 mi NE 8.1 mph - N/A   Clear
5:56 PM 37.9 °F 34.4 °F 10.0 °F 32% 30.39 in 10.0 mi NE 4.6 mph - N/A   Clear
6:56 PM 35.6 °F 31.7 °F 12.2 °F 38% 30.36 in 10.0 mi NNE 4.6 mph - N/A   Clear
7:56 PM 34.0 °F 31.0 °F 14.0 °F 44% 30.43 in 10.0 mi East 3.5 mph - N/A   Clear
8:56 PM 34.0 °F 31.0 °F 13.1 °F 42% 30.44 in 10.0 mi ENE 3.5 mph - N/A   Clear
9:56 PM 32.9 °F 29.8 °F 16.2 °F 50% 30.45 in 10.0 mi ENE 3.5 mph - N/A   Clear
10:56 PM 30.0 °F 26.5 °F 18.1 °F 61% 30.48 in 10.0 mi SW 3.5 mph - N/A   Clear
11:56 PM 29.1 °F 25.4 °F 16.2 °F 58% 30.48 in 10.0 mi South 3.5 mph - N/A   Clear